map of ITB home
ITB - Airport
Location
City:  Itaituba, Pará, Brazil
ICAO:SBIH
IATA:ITB

Details
Type:Airport (Aerodrome, Airfield)
Use:Public/Civil
Latitude:4°14'32"S (-4.242341)
Longitude:56°00'02"W (-56.000668)
Datum:WGS 1984
Elevation:110 ft (34 m)
Variation:17.82°W (WMM2015 magnetic declination)
-0.10° annual change
Runways:1
Longest:5266 × 98 ft (1605 × 30 m), paved

Time
Time Zone:UTC-3
Local Time:

Weather
METAR:SBIH 241300Z 15003KT 9999 FEW008 30/26 Q1013
TAF:SBIH 241000Z 2412/2424 07005KT 9999 FEW015 TN26/2412Z TX31/2418Z
BECMG 2419/2421 13005KT SCT020 FEW027TCU
BECMG 2422/2424 34005KT SCT015
RMK PEN

Related Locations
Nearby:
Farthest:NAH: 12335 mi / 19851 km
Tahuna (Naha), SA, ID

Find:

   beyond  
but within

Other Information
Maps:
NOTAMs:
Links:
Sources:

  
flag of Brazil
flag of Pará
  

Sectional Chart

Flight Planning
at skyvector.com

Satellite Image

Google Maps Satellite view

 

Copyright © 2004-2017 Karl L. Swartz. All rights reserved.
The Great Circle Mapper name and logo are trademarks of the Great Circle Mapper.
All other trademarks mentioned herein belong to their respective owners.
Please see credits for attibutions and further copyright information.

  Follow gcmap on Facebook Follow gcmap on Twitter Follow gcmap on Google+ GCmap on LinkedIn

hCard Microformat

Geo Microformat